owner,sensor,date,latitude,longitude,vertical_datum,sea_water_temperature,qcFlag 
NDBC,ioos:station:wmo:42003:1,2014-10-01T00:50:00Z,26.0070,-85.6480,-0.6,28.8,2 
NDBC,ioos:station:wmo:42003:1,2014-10-01T01:50:00Z,26.0070,-85.6480,-0.6,27.4,2 
NDBC,ioos:station:wmo:42003:1,2014-10-01T02:50:00Z,26.0070,-85.6480,-0.6,26.4,2 
NDBC,ioos:station:wmo:42003:1,2014-10-01T03:50:00Z,26.0070,-85.6480,-0.6,25.6,2 
NDBC,ioos:station:wmo:42003:1,2014-10-01T04:50:00Z,26.0070,-85.6480,-0.6,25.0,2 
NDBC,ioos:station:wmo:42003:1,2014-10-01T05:50:00Z,26.0070,-85.6480,-0.6,24.5,2 
NDBC,ioos:station:wmo:42003:1,2014-10-01T07:50:00Z,26.0070,-85.6480,-0.6,23.8,2 
NDBC,ioos:station:wmo:42003:1,2014-10-01T08:50:00Z,26.0070,-85.6480,-0.6,23.5,2 
NDBC,ioos:station:wmo:42003:1,2014-10-01T09:50:00Z,26.0070,-85.6480,-0.6,23.2,2 
NDBC,ioos:station:wmo:42003:1,2014-10-01T10:50:00Z,26.0070,-85.6480,-0.6,22.9,2 
NDBC,ioos:station:wmo:42003:1,2014-10-01T11:50:00Z,26.0070,-85.6480,-0.6,22.6,2 
NDBC,ioos:station:wmo:42003:1,2014-10-01T12:50:00Z,26.0070,-85.6480,-0.6,22.5,2 
NDBC,ioos:station:wmo:42003:1,2014-10-01T13:50:00Z,26.0070,-85.6480,-0.6,23.7,2 
NDBC,ioos:station:wmo:42003:1,2014-10-01T14:50:00Z,26.0070,-85.6480,-0.6,25.9,2 
NDBC,ioos:station:wmo:42003:1,2014-10-01T15:50:00Z,26.0070,-85.6480,-0.6,28.3,2 
NDBC,ioos:station:wmo:42003:1,2014-10-01T16:50:00Z,26.0070,-85.6480,-0.6,29.5,2 
NDBC,ioos:station:wmo:42003:1,2014-10-01T17:50:00Z,26.0070,-85.6480,-0.6,30.0,2 
NDBC,ioos:station:wmo:42003:1,2014-10-01T18:50:00Z,26.0070,-85.6480,-0.6,29.5,2 
NDBC,ioos:station:wmo:42003:1,2014-10-01T19:50:00Z,26.0070,-85.6480,-0.6,29.3,2 
NDBC,ioos:station:wmo:42003:1,2014-10-08T18:50:00Z,26.0070,-85.6480,-0.6,30.5,2 
NDBC,ioos:station:wmo:42003:1,2014-10-08T19:50:00Z,26.0070,-85.6480,-0.6,30.1,2 
NDBC,ioos:station:wmo:42003:1,2014-10-08T20:50:00Z,26.0070,-85.6480,-0.6,29.7,2 
NDBC,ioos:station:wmo:42003:1,2014-10-08T21:50:00Z,26.0070,-85.6480,-0.6,29.7,2 
NDBC,ioos:station:wmo:42003:1,2014-10-08T22:50:00Z,26.0070,-85.6480,-0.6,29.4,2 
NDBC,ioos:station:wmo:42003:1,2014-10-08T23:50:00Z,26.0070,-85.6480,-0.6,29.0,2 
NDBC,ioos:station:wmo:42003:1,2014-10-09T00:50:00Z,26.0070,-85.6480,-0.6,28.2,2 
NDBC,ioos:station:wmo:42003:1,2014-10-09T01:50:00Z,26.0070,-85.6480,-0.6,27.5,2 
NDBC,ioos:station:wmo:42003:1,2014-10-09T02:50:00Z,26.0070,-85.6480,-0.6,27.0,2 
NDBC,ioos:station:wmo:42003:1,2014-10-09T03:50:00Z,26.0070,-85.6480,-0.6,26.7,2 
NDBC,ioos:station:wmo:42003:1,2014-10-09T04:50:00Z,26.0070,-85.6480,-0.6,26.4,2 
NDBC,ioos:station:wmo:42003:1,2014-10-09T05:50:00Z,26.0070,-85.6480,-0.6,26.2,2 
NDBC,ioos:station:wmo:42003:1,2014-10-09T06:50:00Z,26.0070,-85.6480,-0.6,25.8,2 
NDBC,ioos:station:wmo:42003:1,2014-10-09T07:50:00Z,26.0070,-85.6480,-0.6,25.4,2 
NDBC,ioos:station:wmo:42003:1,2014-10-09T08:50:00Z,26.0070,-85.6480,-0.6,25.2,2 
NDBC,ioos:station:wmo:42003:1,2014-10-09T09:50:00Z,26.0070,-85.6480,-0.6,25.0,2 
NDBC,ioos:station:wmo:42003:1,2014-10-09T10:50:00Z,26.0070,-85.6480,-0.6,24.8,2 
NDBC,ioos:station:wmo:42003:1,2014-10-09T11:50:00Z,26.0070,-85.6480,-0.6,24.6,2 
NDBC,ioos:station:wmo:42003:1,2014-10-09T12:50:00Z,26.0070,-85.6480,-0.6,24.6,2 
NDBC,ioos:station:wmo:42003:1,2014-10-09T13:50:00Z,26.0070,-85.6480,-0.6,25.4,2 
NDBC,ioos:station:wmo:42003:1,2014-10-09T14:50:00Z,26.0070,-85.6480,-0.6,25.8,2 
NDBC,ioos:station:wmo:42003:1,2014-10-09T15:50:00Z,26.0070,-85.6480,-0.6,26.2,2 
NDBC,ioos:station:wmo:42003:1,2014-10-09T16:50:00Z,26.0070,-85.6480,-0.6,28.5,2 
NDBC,ioos:station:wmo:42003:1,2014-10-09T17:50:00Z,26.0070,-85.6480,-0.6,30.2,2 
NDBC,ioos:station:wmo:42003:1,2014-10-09T18:50:00Z,26.0070,-85.6480,-0.6,31.5,2 
NDBC,ioos:station:wmo:42003:1,2014-10-09T19:50:00Z,26.0070,-85.6480,-0.6,31.6,2 
NDBC,ioos:station:wmo:42003:1,2014-10-09T20:50:00Z,26.0070,-85.6480,-0.6,30.9,2 
NDBC,ioos:station:wmo:42003:1,2014-10-09T21:50:00Z,26.0070,-85.6480,-0.6,29.9,2 
NDBC,ioos:station:wmo:42003:1,2014-10-09T22:50:00Z,26.0070,-85.6480,-0.6,29.2,2 
NDBC,ioos:station:wmo:42003:1,2014-10-09T23:50:00Z,26.0070,-85.6480,-0.6,27.9,2 
NDBC,ioos:station:wmo:42003:1,2014-10-10T00:50:00Z,26.0070,-85.6480,-0.6,27.1,2 
NDBC,ioos:station:wmo:42003:1,2014-10-10T02:50:00Z,26.0070,-85.6480,-0.6,26.4,2 
NDBC,ioos:station:wmo:42003:1,2014-10-10T03:50:00Z,26.0070,-85.6480,-0.6,26.1,2 
NDBC,ioos:station:wmo:42003:1,2014-10-10T04:50:00Z,26.0070,-85.6480,-0.6,26.0,2 
NDBC,ioos:station:wmo:42003:1,2014-10-10T05:50:00Z,26.0070,-85.6480,-0.6,25.8,2 
NDBC,ioos:station:wmo:42003:1,2014-10-10T06:50:00Z,26.0070,-85.6480,-0.6,25.6,2 
NDBC,ioos:station:wmo:42003:1,2014-10-10T07:50:00Z,26.0070,-85.6480,-0.6,25.4,2 
NDBC,ioos:station:wmo:42003:1,2014-10-10T08:50:00Z,26.0070,-85.6480,-0.6,25.4,2 
NDBC,ioos:station:wmo:42003:1,2014-10-10T09:50:00Z,26.0070,-85.6480,-0.6,25.5,2 
NDBC,ioos:station:wmo:42003:1,2014-10-10T10:50:00Z,26.0070,-85.6480,-0.6,25.4,2 
NDBC,ioos:station:wmo:42003:1,2014-10-10T11:50:00Z,26.0070,-85.6480,-0.6,25.4,2 
NDBC,ioos:station:wmo:42003:1,2014-10-10T12:50:00Z,26.0070,-85.6480,-0.6,25.5,2 
NDBC,ioos:station:wmo:42003:1,2014-10-10T13:50:00Z,26.0070,-85.6480,-0.6,26.5,2 
NDBC,ioos:station:wmo:42003:1,2014-10-10T14:50:00Z,26.0070,-85.6480,-0.6,28.1,2 
NDBC,ioos:station:wmo:42003:1,2014-10-10T15:50:00Z,26.0070,-85.6480,-0.6,29.3,2 
NDBC,ioos:station:wmo:42003:1,2014-10-10T16:50:00Z,26.0070,-85.6480,-0.6,30.5,2 
NDBC,ioos:station:wmo:42003:1,2014-10-10T17:50:00Z,26.0070,-85.6480,-0.6,31.2,2 
NDBC,ioos:station:wmo:42003:1,2014-10-10T18:50:00Z,26.0070,-85.6480,-0.6,31.5,2 
NDBC,ioos:station:wmo:42003:1,2014-10-10T19:50:00Z,26.0070,-85.6480,-0.6,31.6,2 
NDBC,ioos:station:wmo:42003:1,2014-10-10T20:50:00Z,26.0070,-85.6480,-0.6,30.6,2 
NDBC,ioos:station:wmo:42003:1,2014-10-10T21:50:00Z,26.0070,-85.6480,-0.6,29.6,2 
NDBC,ioos:station:wmo:42003:1,2014-10-10T22:50:00Z,26.0070,-85.6480,-0.6,29.3,2 
NDBC,ioos:station:wmo:42003:1,2014-10-10T23:50:00Z,26.0070,-85.6480,-0.6,28.2,2 
NDBC,ioos:station:wmo:42003:1,2014-10-11T00:50:00Z,26.0070,-85.6480,-0.6,27.4,2 
NDBC,ioos:station:wmo:42003:1,2014-10-11T01:50:00Z,26.0070,-85.6480,-0.6,26.9,2 
NDBC,ioos:station:wmo:42003:1,2014-10-11T02:50:00Z,26.0070,-85.6480,-0.6,26.6,2 
NDBC,ioos:station:wmo:42003:1,2014-10-11T03:50:00Z,26.0070,-85.6480,-0.6,26.4,2 
NDBC,ioos:station:wmo:42003:1,2014-10-11T04:50:00Z,26.0070,-85.6480,-0.6,26.2,2 
NDBC,ioos:station:wmo:42003:1,2014-10-11T05:50:00Z,26.0070,-85.6480,-0.6,26.1,2 
NDBC,ioos:station:wmo:42003:1,2014-10-11T08:50:00Z,26.0070,-85.6480,-0.6,25.7,2 
NDBC,ioos:station:wmo:42003:1,2014-10-11T09:50:00Z,26.0070,-85.6480,-0.6,25.5,2 
NDBC,ioos:station:wmo:42003:1,2014-10-11T10:50:00Z,26.0070,-85.6480,-0.6,25.3,2 
NDBC,ioos:station:wmo:42003:1,2014-10-11T11:50:00Z,26.0070,-85.6480,-0.6,24.8,2 
NDBC,ioos:station:wmo:42003:1,2014-10-11T12:50:00Z,26.0070,-85.6480,-0.6,24.6,2 
NDBC,ioos:station:wmo:42003:1,2014-10-11T13:50:00Z,26.0070,-85.6480,-0.6,25.6,2 
NDBC,ioos:station:wmo:42003:1,2014-10-11T14:50:00Z,26.0070,-85.6480,-0.6,27.5,2 
NDBC,ioos:station:wmo:42003:1,2014-10-11T15:50:00Z,26.0070,-85.6480,-0.6,29.6,2 
NDBC,ioos:station:wmo:42003:1,2014-10-11T16:50:00Z,26.0070,-85.6480,-0.6,31.5,2 
NDBC,ioos:station:wmo:42003:1,2014-10-11T17:50:00Z,26.0070,-85.6480,-0.6,31.8,2 
NDBC,ioos:station:wmo:42003:1,2014-10-11T18:50:00Z,26.0070,-85.6480,-0.6,31.5,2 
NDBC,ioos:station:wmo:42003:1,2014-10-11T19:50:00Z,26.0070,-85.6480,-0.6,30.9,2 
NDBC,ioos:station:wmo:42003:1,2014-10-11T20:50:00Z,26.0070,-85.6480,-0.6,29.7,2 
NDBC,ioos:station:wmo:42003:1,2014-10-11T21:50:00Z,26.0070,-85.6480,-0.6,28.8,2 
NDBC,ioos:station:wmo:42003:1,2014-10-11T22:50:00Z,26.0070,-85.6480,-0.6,28.6,2 
NDBC,ioos:station:wmo:42003:1,2014-10-11T23:50:00Z,26.0070,-85.6480,-0.6,27.7,2 
NDBC,ioos:station:wmo:42003:1,2014-10-12T00:50:00Z,26.0070,-85.6480,-0.6,26.9,2 
NDBC,ioos:station:wmo:42003:1,2014-10-12T01:50:00Z,26.0070,-85.6480,-0.6,26.4,2 
NDBC,ioos:station:wmo:42003:1,2014-10-12T02:50:00Z,26.0070,-85.6480,-0.6,26.0,2 
NDBC,ioos:station:wmo:42003:1,2014-10-12T03:50:00Z,26.0070,-85.6480,-0.6,25.7,2 
NDBC,ioos:station:wmo:42003:1,2014-10-12T04:50:00Z,26.0070,-85.6480,-0.6,25.6,2 
NDBC,ioos:station:wmo:42003:1,2014-10-12T05:50:00Z,26.0070,-85.6480,-0.6,25.6,2 
NDBC,ioos:station:wmo:42003:1,2014-10-12T07:50:00Z,26.0070,-85.6480,-0.6,25.3,2 
NDBC,ioos:station:wmo:42003:1,2014-10-12T08:50:00Z,26.0070,-85.6480,-0.6,25.2,2 
NDBC,ioos:station:wmo:42003:1,2014-10-12T09:50:00Z,26.0070,-85.6480,-0.6,24.8,2 
NDBC,ioos:station:wmo:42003:1,2014-10-12T10:50:00Z,26.0070,-85.6480,-0.6,24.3,2 
NDBC,ioos:station:wmo:42003:1,2014-10-12T11:50:00Z,26.0070,-85.6480,-0.6,23.9,2 
NDBC,ioos:station:wmo:42003:1,2014-10-12T12:50:00Z,26.0070,-85.6480,-0.6,24.1,2 
NDBC,ioos:station:wmo:42003:1,2014-10-12T13:50:00Z,26.0070,-85.6480,-0.6,25.1,2 
NDBC,ioos:station:wmo:42003:1,2014-10-12T14:50:00Z,26.0070,-85.6480,-0.6,26.8,2 
NDBC,ioos:station:wmo:42003:1,2014-10-12T15:50:00Z,26.0070,-85.6480,-0.6,28.5,2 
NDBC,ioos:station:wmo:42003:1,2014-10-12T16:50:00Z,26.0070,-85.6480,-0.6,30.1,2 
NDBC,ioos:station:wmo:42003:1,2014-10-12T17:50:00Z,26.0070,-85.6480,-0.6,31.0,2 
NDBC,ioos:station:wmo:42003:1,2014-10-12T18:50:00Z,26.0070,-85.6480,-0.6,31.1,2 
NDBC,ioos:station:wmo:42003:1,2014-10-12T19:50:00Z,26.0070,-85.6480,-0.6,30.9,2 
NDBC,ioos:station:wmo:42003:1,2014-10-12T20:50:00Z,26.0070,-85.6480,-0.6,29.8,2 
NDBC,ioos:station:wmo:42003:1,2014-10-12T21:50:00Z,26.0070,-85.6480,-0.6,28.9,2 
NDBC,ioos:station:wmo:42003:1,2014-10-12T22:50:00Z,26.0070,-85.6480,-0.6,28.6,2 
NDBC,ioos:station:wmo:42003:1,2014-10-12T23:50:00Z,26.0070,-85.6480,-0.6,27.6,2 
NDBC,ioos:station:wmo:42003:1,2014-10-13T00:50:00Z,26.0070,-85.6480,-0.6,27.1,2 
NDBC,ioos:station:wmo:42003:1,2014-10-13T01:50:00Z,26.0070,-85.6480,-0.6,26.9,2 
NDBC,ioos:station:wmo:42003:1,2014-10-13T02:50:00Z,26.0070,-85.6480,-0.6,26.8,2 
NDBC,ioos:station:wmo:42003:1,2014-10-13T03:50:00Z,26.0070,-85.6480,-0.6,26.8,2 
NDBC,ioos:station:wmo:42003:1,2014-10-13T04:50:00Z,26.0070,-85.6480,-0.6,26.8,2 
NDBC,ioos:station:wmo:42003:1,2014-10-13T05:50:00Z,26.0070,-85.6480,-0.6,26.9,2 
NDBC,ioos:station:wmo:42003:1,2014-10-13T06:50:00Z,26.0070,-85.6480,-0.6,26.9,2 
NDBC,ioos:station:wmo:42003:1,2014-10-13T07:50:00Z,26.0070,-85.6480,-0.6,26.9,2 
NDBC,ioos:station:wmo:42003:1,2014-10-13T08:50:00Z,26.0070,-85.6480,-0.6,26.8,2 
NDBC,ioos:station:wmo:42003:1,2014-10-13T09:50:00Z,26.0070,-85.6480,-0.6,26.7,2 
NDBC,ioos:station:wmo:42003:1,2014-10-13T10:50:00Z,26.0070,-85.6480,-0.6,26.6,2 
NDBC,ioos:station:wmo:42003:1,2014-10-13T11:50:00Z,26.0070,-85.6480,-0.6,26.5,2 
NDBC,ioos:station:wmo:42003:1,2014-10-13T12:50:00Z,26.0070,-85.6480,-0.6,26.7,2 
NDBC,ioos:station:wmo:42003:1,2014-10-13T13:50:00Z,26.0070,-85.6480,-0.6,27.2,2 
NDBC,ioos:station:wmo:42003:1,2014-10-13T14:50:00Z,26.0070,-85.6480,-0.6,27.9,2 
NDBC,ioos:station:wmo:42003:1,2014-10-13T15:50:00Z,26.0070,-85.6480,-0.6,28.7,2 
NDBC,ioos:station:wmo:42003:1,2014-10-13T16:50:00Z,26.0070,-85.6480,-0.6,28.9,2 
NDBC,ioos:station:wmo:42003:1,2014-10-13T17:50:00Z,26.0070,-85.6480,-0.6,29.1,2 
NDBC,ioos:station:wmo:42003:1,2014-10-13T18:50:00Z,26.0070,-85.6480,-0.6,29.2,2 
NDBC,ioos:station:wmo:42003:1,2014-10-13T19:50:00Z,26.0070,-85.6480,-0.6,29.1,2 
NDBC,ioos:station:wmo:42003:1,2014-10-13T20:50:00Z,26.0070,-85.6480,-0.6,28.9,2 
NDBC,ioos:station:wmo:42003:1,2014-10-13T21:50:00Z,26.0070,-85.6480,-0.6,28.2,2 
NDBC,ioos:station:wmo:42003:1,2014-10-13T22:50:00Z,26.0070,-85.6480,-0.6,27.7,2 
NDBC,ioos:station:wmo:42003:1,2014-10-13T23:50:00Z,26.0070,-85.6480,-0.6,27.4,2 
NDBC,ioos:station:wmo:42003:1,2014-10-14T00:50:00Z,26.0070,-85.6480,-0.6,27.4,2 
NDBC,ioos:station:wmo:42003:1,2014-10-14T01:50:00Z,26.0070,-85.6480,-0.6,27.3,2 
NDBC,ioos:station:wmo:42003:1,2014-10-14T02:50:00Z,26.0070,-85.6480,-0.6,27.3,2 
NDBC,ioos:station:wmo:42003:1,2014-10-14T03:50:00Z,26.0070,-85.6480,-0.6,25.3,2 
NDBC,ioos:station:wmo:42003:1,2014-10-14T04:50:00Z,26.0070,-85.6480,-0.6,25.0,2 
NDBC,ioos:station:wmo:42003:1,2014-10-14T05:50:00Z,26.0070,-85.6480,-0.6,23.8,2 
NDBC,ioos:station:wmo:42003:1,2014-10-14T06:50:00Z,26.0070,-85.6480,-0.6,23.4,2 
NDBC,ioos:station:wmo:42003:1,2014-10-14T07:50:00Z,26.0070,-85.6480,-0.6,23.6,2 
NDBC,ioos:station:wmo:42003:1,2014-10-14T08:50:00Z,26.0070,-85.6480,-0.6,24.3,2 
NDBC,ioos:station:wmo:42003:1,2014-10-14T09:50:00Z,26.0070,-85.6480,-0.6,24.2,2 
NDBC,ioos:station:wmo:42003:1,2014-10-14T10:50:00Z,26.0070,-85.6480,-0.6,23.5,2 
NDBC,ioos:station:wmo:42003:1,2014-10-14T11:50:00Z,26.0070,-85.6480,-0.6,22.5,2 
NDBC,ioos:station:wmo:42003:1,2014-10-14T12:50:00Z,26.0070,-85.6480,-0.6,21.5,2 
NDBC,ioos:station:wmo:42003:1,2014-10-14T13:50:00Z,26.0070,-85.6480,-0.6,21.4,2 
NDBC,ioos:station:wmo:42003:1,2014-10-14T14:50:00Z,26.0070,-85.6480,-0.6,22.5,2 
NDBC,ioos:station:wmo:42003:1,2014-10-14T15:50:00Z,26.0070,-85.6480,-0.6,24.5,2 
NDBC,ioos:station:wmo:42003:1,2014-10-14T16:50:00Z,26.0070,-85.6480,-0.6,24.8,2 
NDBC,ioos:station:wmo:42003:1,2014-10-14T17:50:00Z,26.0070,-85.6480,-0.6,26.0,2 
NDBC,ioos:station:wmo:42003:1,2014-10-14T18:50:00Z,26.0070,-85.6480,-0.6,25.8,2 
NDBC,ioos:station:wmo:42003:1,2014-10-14T19:50:00Z,26.0070,-85.6480,-0.6,24.6,2 
NDBC,ioos:station:wmo:42003:1,2014-10-14T20:50:00Z,26.0070,-85.6480,-0.6,23.7,2 
NDBC,ioos:station:wmo:42003:1,2014-10-14T21:50:00Z,26.0070,-85.6480,-0.6,23.5,2 
NDBC,ioos:station:wmo:42003:1,2014-10-14T22:50:00Z,26.0070,-85.6480,-0.6,23.5,2 
NDBC,ioos:station:wmo:42003:1,2014-10-14T23:50:00Z,26.0070,-85.6480,-0.6,23.2,2 
NDBC,ioos:station:wmo:42003:1,2014-10-15T00:50:00Z,26.0070,-85.6480,-0.6,23.0,2 
NDBC,ioos:station:wmo:42003:1,2014-10-15T01:50:00Z,26.0070,-85.6480,-0.6,22.9,2 
NDBC,ioos:station:wmo:42003:1,2014-10-15T02:50:00Z,26.0070,-85.6480,-0.6,22.8,2 
NDBC,ioos:station:wmo:42003:1,2014-10-15T03:50:00Z,26.0070,-85.6480,-0.6,22.7,2 
NDBC,ioos:station:wmo:42003:1,2014-10-15T04:50:00Z,26.0070,-85.6480,-0.6,22.7,2 
NDBC,ioos:station:wmo:42003:1,2014-10-15T05:50:00Z,26.0070,-85.6480,-0.6,22.8,2 
NDBC,ioos:station:wmo:42003:1,2014-10-15T07:50:00Z,26.0070,-85.6480,-0.6,22.9,2 
NDBC,ioos:station:wmo:42003:1,2014-10-15T08:50:00Z,26.0070,-85.6480,-0.6,22.8,2 
NDBC,ioos:station:wmo:42003:1,2014-10-15T09:50:00Z,26.0070,-85.6480,-0.6,22.9,2 
NDBC,ioos:station:wmo:42003:1,2014-10-15T10:50:00Z,26.0070,-85.6480,-0.6,22.9,2 
NDBC,ioos:station:wmo:42003:1,2014-10-15T11:50:00Z,26.0070,-85.6480,-0.6,22.9,2 
NDBC,ioos:station:wmo:42003:1,2014-10-15T12:50:00Z,26.0070,-85.6480,-0.6,24.5,2 
NDBC,ioos:station:wmo:42003:1,2014-10-15T14:50:00Z,26.0070,-85.6480,-0.6,31.1,2 
NDBC,ioos:station:wmo:42003:1,2014-10-15T15:50:00Z,26.0070,-85.6480,-0.6,30.1,2 
NDBC,ioos:station:wmo:42003:1,2014-10-15T16:50:00Z,26.0070,-85.6480,-0.6,31.3,2 
NDBC,ioos:station:wmo:42003:1,2014-10-15T17:50:00Z,26.0070,-85.6480,-0.6,33.5,2 
NDBC,ioos:station:wmo:42003:1,2014-10-15T18:50:00Z,26.0070,-85.6480,-0.6,32.7,2 
NDBC,ioos:station:wmo:42003:1,2014-10-15T19:50:00Z,26.0070,-85.6480,-0.6,29.1,2 
NDBC,ioos:station:wmo:42003:1,2014-10-15T20:50:00Z,26.0070,-85.6480,-0.6,29.0,2 
NDBC,ioos:station:wmo:42003:1,2014-10-15T21:50:00Z,26.0070,-85.6480,-0.6,28.9,2 
NDBC,ioos:station:wmo:42003:1,2014-10-15T22:50:00Z,26.0070,-85.6480,-0.6,28.8,2 
NDBC,ioos:station:wmo:42003:1,2014-10-15T23:50:00Z,26.0070,-85.6480,-0.6,28.8,2 
NDBC,ioos:station:wmo:42003:1,2014-10-16T00:50:00Z,26.0070,-85.6480,-0.6,28.8,2 
NDBC,ioos:station:wmo:42003:1,2014-10-16T01:50:00Z,26.0070,-85.6480,-0.6,28.8,2 
NDBC,ioos:station:wmo:42003:1,2014-10-16T02:50:00Z,26.0070,-85.6480,-0.6,28.8,2 
NDBC,ioos:station:wmo:42003:1,2014-10-16T03:50:00Z,26.0070,-85.6480,-0.6,28.7,2 
NDBC,ioos:station:wmo:42003:1,2014-10-16T04:50:00Z,26.0070,-85.6480,-0.6,28.7,2 
NDBC,ioos:station:wmo:42003:1,2014-10-16T05:50:00Z,26.0070,-85.6480,-0.6,28.7,2 
NDBC,ioos:station:wmo:42003:1,2014-10-16T06:50:00Z,26.0070,-85.6480,-0.6,28.7,2 
NDBC,ioos:station:wmo:42003:1,2014-10-16T08:50:00Z,26.0070,-85.6480,-0.6,28.7,2 
NDBC,ioos:station:wmo:42003:1,2014-10-16T09:50:00Z,26.0070,-85.6480,-0.6,28.7,2 
NDBC,ioos:station:wmo:42003:1,2014-10-16T10:50:00Z,26.0070,-85.6480,-0.6,28.7,2 
NDBC,ioos:station:wmo:42003:1,2014-10-16T11:50:00Z,26.0070,-85.6480,-0.6,28.7,2 
NDBC,ioos:station:wmo:42003:1,2014-10-16T12:50:00Z,26.0070,-85.6480,-0.6,28.7,2 
NDBC,ioos:station:wmo:42003:1,2014-10-16T13:50:00Z,26.0070,-85.6480,-0.6,28.7,2 
NDBC,ioos:station:wmo:42003:1,2014-10-16T14:50:00Z,26.0070,-85.6480,-0.6,28.8,2 
NDBC,ioos:station:wmo:42003:1,2014-10-16T15:50:00Z,26.0070,-85.6480,-0.6,28.8,2 
NDBC,ioos:station:wmo:42003:1,2014-10-16T16:50:00Z,26.0070,-85.6480,-0.6,28.8,2 
NDBC,ioos:station:wmo:42003:1,2014-10-16T17:50:00Z,26.0070,-85.6480,-0.6,28.8,2 
NDBC,ioos:station:wmo:42003:1,2014-10-16T18:50:00Z,26.0070,-85.6480,-0.6,28.8,2 
NDBC,ioos:station:wmo:42003:1,2014-10-16T19:50:00Z,26.0070,-85.6480,-0.6,28.8,2 
NDBC,ioos:station:wmo:42003:1,2014-10-16T20:50:00Z,26.0070,-85.6480,-0.6,28.8,2 
NDBC,ioos:station:wmo:42003:1,2014-10-16T21:50:00Z,26.0070,-85.6480,-0.6,28.7,2 
NDBC,ioos:station:wmo:42003:1,2014-10-16T22:50:00Z,26.0070,-85.6480,-0.6,28.8,2 
NDBC,ioos:station:wmo:42003:1,2014-10-16T23:50:00Z,26.0070,-85.6480,-0.6,28.8,2 
NDBC,ioos:station:wmo:42003:1,2014-10-17T00:50:00Z,26.0070,-85.6480,-0.6,28.7,2 
NDBC,ioos:station:wmo:42003:1,2014-10-17T01:50:00Z,26.0070,-85.6480,-0.6,28.7,2 
NDBC,ioos:station:wmo:42003:1,2014-10-17T02:50:00Z,26.0070,-85.6480,-0.6,28.7,2 
NDBC,ioos:station:wmo:42003:1,2014-10-17T03:50:00Z,26.0070,-85.6480,-0.6,28.7,2 
NDBC,ioos:station:wmo:42003:1,2014-10-17T04:50:00Z,26.0070,-85.6480,-0.6,28.7,2 
NDBC,ioos:station:wmo:42003:1,2014-10-17T05:50:00Z,26.0070,-85.6480,-0.6,28.7,2 
NDBC,ioos:station:wmo:42003:1,2014-10-17T06:50:00Z,26.0070,-85.6480,-0.6,28.7,2 
NDBC,ioos:station:wmo:42003:1,2014-10-17T07:50:00Z,26.0070,-85.6480,-0.6,28.7,2 
NDBC,ioos:station:wmo:42003:1,2014-10-17T08:50:00Z,26.0070,-85.6480,-0.6,28.7,2 
NDBC,ioos:station:wmo:42003:1,2014-10-17T09:50:00Z,26.0070,-85.6480,-0.6,28.7,2 
NDBC,ioos:station:wmo:42003:1,2014-10-17T10:50:00Z,26.0070,-85.6480,-0.6,28.6,2 
NDBC,ioos:station:wmo:42003:1,2014-10-17T11:50:00Z,26.0070,-85.6480,-0.6,28.6,2 
NDBC,ioos:station:wmo:42003:1,2014-10-17T12:50:00Z,26.0070,-85.6480,-0.6,28.6,2 
NDBC,ioos:station:wmo:42003:1,2014-10-17T13:50:00Z,26.0070,-85.6480,-0.6,28.8,2 
NDBC,ioos:station:wmo:42003:1,2014-10-17T14:50:00Z,26.0070,-85.6480,-0.6,28.8,2 
NDBC,ioos:station:wmo:42003:1,2014-10-17T15:50:00Z,26.0070,-85.6480,-0.6,28.9,2 
NDBC,ioos:station:wmo:42003:1,2014-10-17T16:50:00Z,26.0070,-85.6480,-0.6,29.1,2 
NDBC,ioos:station:wmo:42003:1,2014-10-17T17:50:00Z,26.0070,-85.6480,-0.6,29.2,2 
NDBC,ioos:station:wmo:42003:1,2014-10-17T18:50:00Z,26.0070,-85.6480,-0.6,29.3,2 
NDBC,ioos:station:wmo:42003:1,2014-10-17T19:50:00Z,26.0070,-85.6480,-0.6,29.3,2 
NDBC,ioos:station:wmo:42003:1,2014-10-17T20:50:00Z,26.0070,-85.6480,-0.6,29.3,2 
NDBC,ioos:station:wmo:42003:1,2014-10-17T21:50:00Z,26.0070,-85.6480,-0.6,29.2,2 
NDBC,ioos:station:wmo:42003:1,2014-10-17T22:50:00Z,26.0070,-85.6480,-0.6,29.1,2 
NDBC,ioos:station:wmo:42003:1,2014-10-17T23:50:00Z,26.0070,-85.6480,-0.6,29.0,2 
NDBC,ioos:station:wmo:42003:1,2014-10-18T00:50:00Z,26.0070,-85.6480,-0.6,28.9,2 
NDBC,ioos:station:wmo:42003:1,2014-10-18T01:50:00Z,26.0070,-85.6480,-0.6,28.9,2 
NDBC,ioos:station:wmo:42003:1,2014-10-18T02:50:00Z,26.0070,-85.6480,-0.6,28.9,2 
NDBC,ioos:station:wmo:42003:1,2014-10-18T03:50:00Z,26.0070,-85.6480,-0.6,28.9,2 
NDBC,ioos:station:wmo:42003:1,2014-10-18T04:50:00Z,26.0070,-85.6480,-0.6,28.9,2 
NDBC,ioos:station:wmo:42003:1,2014-10-18T05:50:00Z,26.0070,-85.6480,-0.6,28.9,2 
NDBC,ioos:station:wmo:42003:1,2014-10-18T06:50:00Z,26.0070,-85.6480,-0.6,28.8,2 
NDBC,ioos:station:wmo:42003:1,2014-10-18T07:50:00Z,26.0070,-85.6480,-0.6,28.8,2 
NDBC,ioos:station:wmo:42003:1,2014-10-18T08:50:00Z,26.0070,-85.6480,-0.6,28.7,2 
NDBC,ioos:station:wmo:42003:1,2014-10-18T09:50:00Z,26.0070,-85.6480,-0.6,28.6,2 
NDBC,ioos:station:wmo:42003:1,2014-10-18T10:50:00Z,26.0070,-85.6480,-0.6,28.6,2 
NDBC,ioos:station:wmo:42003:1,2014-10-18T11:50:00Z,26.0070,-85.6480,-0.6,28.5,2 
NDBC,ioos:station:wmo:42003:1,2014-10-18T12:50:00Z,26.0070,-85.6480,-0.6,28.5,2 
NDBC,ioos:station:wmo:42003:1,2014-10-18T13:50:00Z,26.0070,-85.6480,-0.6,28.5,2 
NDBC,ioos:station:wmo:42003:1,2014-10-18T14:50:00Z,26.0070,-85.6480,-0.6,28.6,2 
NDBC,ioos:station:wmo:42003:1,2014-10-18T15:50:00Z,26.0070,-85.6480,-0.6,28.7,2 
NDBC,ioos:station:wmo:42003:1,2014-10-18T16:50:00Z,26.0070,-85.6480,-0.6,28.6,2 
NDBC,ioos:station:wmo:42003:1,2014-10-18T17:50:00Z,26.0070,-85.6480,-0.6,28.7,2 
NDBC,ioos:station:wmo:42003:1,2014-10-18T18:50:00Z,26.0070,-85.6480,-0.6,28.6,2 
NDBC,ioos:station:wmo:42003:1,2014-10-18T19:50:00Z,26.0070,-85.6480,-0.6,28.6,2 
NDBC,ioos:station:wmo:42003:1,2014-10-18T20:50:00Z,26.0070,-85.6480,-0.6,28.6,2 
NDBC,ioos:station:wmo:42003:1,2014-10-18T21:50:00Z,26.0070,-85.6480,-0.6,28.5,2 
NDBC,ioos:station:wmo:42003:1,2014-10-18T22:50:00Z,26.0070,-85.6480,-0.6,28.4,2 
NDBC,ioos:station:wmo:42003:1,2014-10-18T23:50:00Z,26.0070,-85.6480,-0.6,28.4,2 
NDBC,ioos:station:wmo:42003:1,2014-10-19T00:50:00Z,26.0070,-85.6480,-0.6,28.4,2 
NDBC,ioos:station:wmo:42003:1,2014-10-19T01:50:00Z,26.0070,-85.6480,-0.6,28.3,2 
NDBC,ioos:station:wmo:42003:1,2014-10-19T02:50:00Z,26.0070,-85.6480,-0.6,28.4,2 
NDBC,ioos:station:wmo:42003:1,2014-10-19T03:50:00Z,26.0070,-85.6480,-0.6,28.4,2 
NDBC,ioos:station:wmo:42003:1,2014-10-19T04:50:00Z,26.0070,-85.6480,-0.6,28.4,2 
NDBC,ioos:station:wmo:42003:1,2014-10-19T05:50:00Z,26.0070,-85.6480,-0.6,28.4,2 
NDBC,ioos:station:wmo:42003:1,2014-10-19T07:50:00Z,26.0070,-85.6480,-0.6,28.4,2 
NDBC,ioos:station:wmo:42003:1,2014-10-19T08:50:00Z,26.0070,-85.6480,-0.6,28.4,2 
NDBC,ioos:station:wmo:42003:1,2014-10-19T09:50:00Z,26.0070,-85.6480,-0.6,28.4,2 
NDBC,ioos:station:wmo:42003:1,2014-10-19T10:50:00Z,26.0070,-85.6480,-0.6,28.4,2 
NDBC,ioos:station:wmo:42003:1,2014-10-19T11:50:00Z,26.0070,-85.6480,-0.6,28.4,2 
NDBC,ioos:station:wmo:42003:1,2014-10-19T12:50:00Z,26.0070,-85.6480,-0.6,28.4,2 
NDBC,ioos:station:wmo:42003:1,2014-10-19T13:50:00Z,26.0070,-85.6480,-0.6,28.4,2 
NDBC,ioos:station:wmo:42003:1,2014-10-19T14:50:00Z,26.0070,-85.6480,-0.6,28.4,2 
NDBC,ioos:station:wmo:42003:1,2014-10-19T15:50:00Z,26.0070,-85.6480,-0.6,28.4,2 
NDBC,ioos:station:wmo:42003:1,2014-10-19T16:50:00Z,26.0070,-85.6480,-0.6,28.4,2 
NDBC,ioos:station:wmo:42003:1,2014-10-19T17:50:00Z,26.0070,-85.6480,-0.6,28.4,2 
NDBC,ioos:station:wmo:42003:1,2014-10-19T18:50:00Z,26.0070,-85.6480,-0.6,28.4,2 
NDBC,ioos:station:wmo:42003:1,2014-10-19T19:50:00Z,26.0070,-85.6480,-0.6,28.4,2 
NDBC,ioos:station:wmo:42003:1,2014-10-19T20:50:00Z,26.0070,-85.6480,-0.6,28.4,2 
NDBC,ioos:station:wmo:42003:1,2014-10-19T21:50:00Z,26.0070,-85.6480,-0.6,28.4,2 
NDBC,ioos:station:wmo:42003:1,2014-10-19T22:50:00Z,26.0070,-85.6480,-0.6,28.4,2 
NDBC,ioos:station:wmo:42003:1,2014-10-19T23:50:00Z,26.0070,-85.6480,-0.6,28.3,2 
NDBC,ioos:station:wmo:42003:1,2014-10-20T00:50:00Z,26.0070,-85.6480,-0.6,28.2,2 
NDBC,ioos:station:wmo:42003:1,2014-10-20T01:50:00Z,26.0070,-85.6480,-0.6,28.2,2 
NDBC,ioos:station:wmo:42003:1,2014-10-20T02:50:00Z,26.0070,-85.6480,-0.6,28.2,2 
NDBC,ioos:station:wmo:42003:1,2014-10-20T04:50:00Z,26.0070,-85.6480,-0.6,28.1,2 
NDBC,ioos:station:wmo:42003:1,2014-10-20T05:50:00Z,26.0070,-85.6480,-0.6,28.2,2 
NDBC,ioos:station:wmo:42003:1,2014-10-20T08:50:00Z,26.0070,-85.6480,-0.6,28.1,2 
NDBC,ioos:station:wmo:42003:1,2014-10-20T09:50:00Z,26.0070,-85.6480,-0.6,28.1,2 
NDBC,ioos:station:wmo:42003:1,2014-10-20T10:50:00Z,26.0070,-85.6480,-0.6,28.1,2 
NDBC,ioos:station:wmo:42003:1,2014-10-20T11:50:00Z,26.0070,-85.6480,-0.6,28.1,2 
NDBC,ioos:station:wmo:42003:1,2014-10-20T12:50:00Z,26.0070,-85.6480,-0.6,28.2,2 
NDBC,ioos:station:wmo:42003:1,2014-10-20T13:50:00Z,26.0070,-85.6480,-0.6,28.2,2 
NDBC,ioos:station:wmo:42003:1,2014-10-20T14:50:00Z,26.0070,-85.6480,-0.6,28.3,2 
NDBC,ioos:station:wmo:42003:1,2014-10-20T15:50:00Z,26.0070,-85.6480,-0.6,28.3,2 
NDBC,ioos:station:wmo:42003:1,2014-10-20T16:50:00Z,26.0070,-85.6480,-0.6,28.3,2 